Weather History for Newport, VT

Change the Weather History Date:

Monday, November 19, 2012

  Actual Average Record
Temperature  
Mean Temperature 36 °F -  
Max Temperature 47 °F 39 °F 68 °F (1941)
Min Temperature 25 °F 23 °F 2 °F (1936)
Degree Days  
Heating Degree Days 29    
Moisture  
Dew Point 22 °F    
Average Humidity 64    
Maximum Humidity 81    
Minimum Humidity 33    
Precipitation  
Precipitation 0.00 in - - ()
Sea Level Pressure  
Sea Level Pressure 30.43 in    
Wind  
Wind Speed 4 mph (SW)    
Max Wind Speed 7 mph    
Max Gust Speed -    
Visibility 10 miles    
Events      
Averages and records for this station are not official NWS values.
T = Trace of Precipitation, MM = Missing Value Source: NWS Daily Summary

Daily Weather History Graph

Daily Weather History Graph

Search for Another Location

Airport:

Trip Planner

Search our weather history database for the weather conditions in past years. The results will help you decide how hot, cold, wet, or windy it might be!

Date:

Astronomy

Nov. 19, 2012 Rise Set
Actual Time 6:52 AM EST 4:16 PM EST
Civil Twilight 6:20 AM EST 4:48 PM EST
Nautical Twilight 5:44 AM EST 5:24 PM EST
Astronomical Twilight 5:09 AM EST 5:58 PM EST
Moon 11:47 AM EST (11/19) 10:47 PM EST (11/19)
Length of Visible Light 10h 28m
Length of Day
9h 23m
Waxing Crescent, 40% of the Moon is Illuminated
Nov 19
Waxing Crescent
Nov 20
First Quarter
Nov 28
Full
Dec 6
Last Quarter
Dec 13
New

Hourly Weather History & Observations

Time (EST) Temp. Windchill Dew Point Humidity Pressure Visibility Wind Dir Wind Speed Gust Speed Precip Events Conditions
12:15 AM 28.2 °F 21.0 °F 20.3 °F 72% 30.58 in 10.0 mi SSW 6.9 mph - N/A   Clear
12:55 AM 27.7 °F 21.3 °F 20.5 °F 74% 30.57 in 10.0 mi SW 5.8 mph - N/A   Clear
1:15 AM 27.3 °F 19.9 °F 20.5 °F 75% 30.57 in 10.0 mi SW 6.9 mph - N/A   Clear
1:55 AM 28.8 °F 23.7 °F 21.6 °F 74% 30.56 in 10.0 mi SW 4.6 mph - N/A   Clear
2:15 AM 28.9 °F 23.9 °F 22.5 °F 77% 30.56 in 10.0 mi SW 4.6 mph - N/A   Clear
2:35 AM 27.1 °F 21.8 °F 21.0 °F 78% 30.56 in 10.0 mi SW 4.6 mph - N/A   Clear
2:55 AM 26.4 °F 19.8 °F 20.3 °F 78% 30.56 in 10.0 mi SW 5.8 mph - N/A   Clear
3:15 AM 27.5 °F 22.2 °F 21.6 °F 78% 30.55 in 10.0 mi SW 4.6 mph - N/A   Clear
3:35 AM 26.8 °F 21.4 °F 21.2 °F 79% 30.55 in 10.0 mi SW 4.6 mph - N/A   Clear
3:55 AM 27.3 °F 22.0 °F 21.9 °F 80% 30.54 in 10.0 mi SW 4.6 mph - N/A   Clear
4:15 AM 27.1 °F 20.7 °F 21.6 °F 80% 30.54 in 10.0 mi SW 5.8 mph - N/A   Clear
4:35 AM 26.8 °F 20.2 °F 21.2 °F 79% 30.54 in 10.0 mi SW 5.8 mph - N/A   Clear
4:55 AM 26.4 °F 19.8 °F 21.4 °F 81% 30.54 in 10.0 mi SW 5.8 mph - N/A   Clear
5:15 AM 26.4 °F 19.8 °F 21.2 °F 81% 30.54 in 10.0 mi SSW 5.8 mph - N/A   Clear
5:35 AM 27.3 °F 20.9 °F 21.4 °F 78% 30.53 in 10.0 mi SSW 5.8 mph - N/A   Clear
5:55 AM 26.2 °F 20.7 °F 20.7 °F 79% 30.53 in 10.0 mi SSW 4.6 mph - N/A   Clear
6:15 AM 25.3 °F 18.5 °F 20.1 °F 81% 30.53 in 10.0 mi South 5.8 mph - N/A   Clear
6:35 AM 26.4 °F 19.8 °F 21.2 °F 81% 30.53 in 10.0 mi SSW 5.8 mph - N/A   Clear
6:55 AM 27.0 °F - 20.7 °F 77% 30.53 in 10.0 mi Calm Calm - N/A   Clear
7:15 AM 26.2 °F - 20.8 °F 80% 30.53 in 10.0 mi Calm Calm - N/A   Clear
7:35 AM 26.2 °F - 21.2 °F 81% 30.53 in 10.0 mi Calm Calm - N/A   Clear
7:55 AM 30.0 °F 26.5 °F 23.0 °F 75% 30.52 in 10.0 mi South 3.5 mph - N/A   Clear
8:15 AM 31.1 °F 26.4 °F 23.0 °F 72% 30.51 in 10.0 mi SSW 4.6 mph - N/A   Clear
8:35 AM 31.3 °F - 24.1 °F 75% 30.51 in 10.0 mi Calm Calm - N/A   Clear
8:55 AM 34.3 °F 31.4 °F 24.6 °F 68% 30.50 in 10.0 mi South 3.5 mph - N/A   Clear
9:15 AM 36.3 °F - 24.6 °F 63% 30.50 in 10.0 mi Calm Calm - N/A   Clear
9:55 AM 38.3 °F 33.2 °F 24.8 °F 58% 30.49 in 10.0 mi SSE 6.9 mph - N/A   Clear
10:15 AM 39.7 °F 37.6 °F 25.0 °F 56% 30.49 in 10.0 mi SSW 3.5 mph - N/A   Clear
10:55 AM 42.1 °F 38.4 °F 24.8 °F 50% 30.47 in 10.0 mi SSW 5.8 mph - N/A   Clear
11:15 AM 42.8 °F 40.1 °F 23.2 °F 46% 30.46 in 10.0 mi SW 4.6 mph - N/A   Clear
11:35 AM 43.7 °F 41.1 °F 23.7 °F 45% 30.45 in 10.0 mi SSW 4.6 mph - N/A   Clear
11:55 AM 44.4 °F - 23.7 °F 44% 30.44 in 10.0 mi Calm Calm - N/A   Clear
12:15 PM 45.1 °F 43.7 °F 22.8 °F 41% 30.43 in 10.0 mi SW 3.5 mph - N/A   Clear
12:35 PM 45.5 °F - 20.5 °F 37% 30.42 in 10.0 mi Calm Calm - N/A   Clear
12:55 PM 46.6 °F - 19.9 °F 35% 30.41 in 10.0 mi Calm Calm - N/A   Clear
1:15 PM 47.5 °F - 21.9 °F 36% 30.40 in 10.0 mi East 3.5 mph - N/A   Clear
1:35 PM 47.5 °F - 21.0 °F 35% 30.38 in 10.0 mi Calm Calm - N/A   Clear
1:55 PM 47.5 °F - 20.1 °F 34% 30.38 in 10.0 mi Calm Calm - N/A   Clear
2:15 PM 47.8 °F - 19.8 °F 33% 30.38 in 10.0 mi Calm Calm - N/A   Clear
2:35 PM 47.7 °F - 21.0 °F 35% 30.37 in 10.0 mi Calm Calm - N/A   Clear
2:55 PM 47.3 °F - 20.1 °F 34% 30.37 in 10.0 mi Calm Calm - N/A   Clear
3:15 PM 47.5 °F - 19.9 °F 34% 30.37 in 10.0 mi Calm Calm - N/A   Clear
3:35 PM 45.9 °F - 20.8 °F 37% 30.37 in 10.0 mi Calm Calm - N/A   Clear
3:55 PM 44.2 °F - 21.0 °F 40% 30.36 in 10.0 mi Calm Calm - N/A   Clear
4:15 PM 43.0 °F - 21.0 °F 42% 30.35 in 10.0 mi Calm Calm - N/A   Clear
4:35 PM 40.1 °F - 20.7 °F 46% 30.35 in 10.0 mi Calm Calm - N/A   Clear
4:55 PM 36.7 °F - 21.9 °F 55% 30.34 in 10.0 mi Calm Calm - N/A   Clear
5:15 PM 34.2 °F - 21.7 °F 60% 30.34 in 10.0 mi Calm Calm - N/A   Clear
5:35 PM 31.3 °F - 21.7 °F 68% 30.34 in 10.0 mi Calm Calm - N/A   Clear
5:55 PM 36.5 °F 32.7 °F 23.0 °F 58% 30.34 in 10.0 mi SW 4.6 mph - N/A   Clear
6:15 PM 35.4 °F 31.5 °F 23.0 °F 61% 30.35 in 10.0 mi SSW 4.6 mph - N/A   Clear
6:35 PM 34.0 °F - 23.5 °F 66% 30.34 in 10.0 mi Calm Calm - N/A   Clear
6:55 PM 33.6 °F 29.4 °F 23.2 °F 66% 30.33 in 10.0 mi SW 4.6 mph - N/A   Clear
7:15 PM 31.8 °F 27.3 °F 22.8 °F 69% 30.33 in 10.0 mi SW 4.6 mph - N/A   Clear
7:35 PM 32.0 °F 28.7 °F 23.0 °F 69% 30.32 in 10.0 mi WSW 3.5 mph - N/A   Clear
7:55 PM 31.6 °F 27.0 °F 22.8 °F 70% 30.32 in 10.0 mi SW 4.6 mph - N/A   Clear
8:15 PM 31.5 °F 28.1 °F 23.0 °F 71% 30.32 in 10.0 mi SW 3.5 mph - N/A   Clear
8:35 PM 31.1 °F 27.7 °F 22.8 °F 71% 30.32 in 10.0 mi WSW 3.5 mph - N/A   Clear
8:55 PM 30.2 °F 25.4 °F 22.6 °F 73% 30.31 in 10.0 mi SW 4.6 mph - N/A   Clear
9:15 PM 30.9 °F 27.5 °F 23.0 °F 72% 30.30 in 10.0 mi SW 3.5 mph - N/A   Clear
9:35 PM 30.0 °F 25.2 °F 22.8 °F 75% 30.29 in 10.0 mi SW 4.6 mph - N/A   Clear
9:55 PM 28.9 °F 21.9 °F 22.1 °F 76% 30.29 in 10.0 mi SSW 6.9 mph - N/A   Clear
10:15 PM 29.1 °F 25.4 °F 22.3 °F 76% 30.29 in 10.0 mi SW 3.5 mph - N/A   Clear
10:35 PM 28.8 °F 25.0 °F 22.8 °F 78% 30.28 in 10.0 mi SW 3.5 mph - N/A   Clear
10:55 PM 29.5 °F 25.9 °F 23.0 °F 77% 30.28 in 10.0 mi SW 3.5 mph - N/A   Clear
11:15 PM 29.7 °F 24.7 °F 22.8 °F 76% 30.28 in 10.0 mi SW 4.6 mph - N/A   Clear
11:55 PM 27.7 °F 22.4 °F 21.9 °F 79% 30.27 in 10.0 mi SW 4.6 mph - N/A   Clear